Terug naar catalogus

BREEZE-M DEB

ActiefHEO
NORAD 38645·DEBRIS·🇷🇺 Russia

Gelanceerd Mar 14, 2008 vanaf Baikonur Cosmodrome

Loading…

Volgende Passages (komende 24 uur)

TLE

VersSource: Space-Track

Epoch: Sep 13, 2026, 11:24 UTC

1 38645U 08011CU  26256.47566432  .00000228  00000-0  12231-1 0  9996
2 38645  49.0965 351.9512 6378320 246.3074 249.7841  3.06702535176855

Volg BREEZE-M DEB in realtime met AllMySat

Download on the App Store